Location: Newark
(46.7000°N, 60.6000°W)
Time: 07:39:50
(UTC+00:00)

Vanguard 3 - Pass Details

Date: 03 November 2020
Orbit: 508 x 3262 km, 33.3° (Epoch: 29 November)

Event Time Altitude Azimuth Distance (km) Brightness Sun altitude
Rises 10:12:46 0° 255° (WSW) 6,118 11.1 -6.6°
Reaches altitude 10° 10:16:29 10° 251° (WSW) 5,396 10.8 -6.0°
Maximum altitude 10:33:09 53° 181° (S) 3,700 10.6 -3.2°
Drops below altitude 10° 10:51:36 10° 113° (ESE) 5,906 13.9 -0.3°
Sets 10:55:54 0° 109° (ESE) 6,705 15.1 0.4°
